• In Uzbekistan
  • List of Countries
  • For 7 days
  • Water Temperature
  • Satellite Maps
  • Weather Map
  • Weather Widgets
  • user-avatar
    Login

    Hourly Weather Santa Fe

    Today, 23 August, Wednesday

    Time Temperature Precipitation Wind Pressure Humidity
    00:00 +17°C° 0 mm 6 mps 754 mmHg 68%
    01:00 +16°C° 0 mm 6 mps 754 mmHg 70%
    02:00 +17°C° 0 mm 6 mps 754 mmHg 68%
    03:00 +16°C° 0 mm 6 mps 754 mmHg 70%
    04:00 +16°C° 0 mm 5 mps 754 mmHg 73%
    05:00 +16°C° 0 mm 5 mps 754 mmHg 75%
    06:00 +16°C° 0 mm 5 mps 754 mmHg 75%
    07:00 +16°C° 0 mm 5 mps 755 mmHg 76%
    08:00 +18°C° 0 mm 4 mps 755 mmHg 76%
    09:00 +20°C° 0 mm 4 mps 756 mmHg 71%
    10:00 +22°C° 0 mm 4 mps 756 mmHg 65%
    11:00 +25°C° 0 mm 3 mps 756 mmHg 60%
    12:00 +25°C° 0 mm 3 mps 756 mmHg 58%
    13:00 +26°C° 0 mm 2 mps 755 mmHg 55%
    14:00 +27°C° 0 mm 1 mps 755 mmHg 52%
    15:00 +26°C° 0 mm 1 mps 755 mmHg 56%
    16:00 +25°C° 0 mm 1 mps 755 mmHg 60%
    17:00 +25°C° 0 mm 1 mps 755 mmHg 64%
    18:00 +24°C° 0 mm 1 mps 756 mmHg 67%
    19:00 +23°C° 0 mm 1 mps 756 mmHg 70%
    20:00 +20°C° 0 mm 2 mps 756 mmHg 73%
    21:00 +20°C° 0 mm 2 mps 756 mmHg 77%
    22:00 +20°C° 0 mm 2 mps 756 mmHg 80%
    23:00 +19°C° 0 mm 2 mps 756 mmHg 83%

    Tomorrow, 24 August, Thursday

    Time Temperature Precipitation Wind Pressure Humidity
    00:00 +19°C° 0 mm 2 mps 756 mmHg 85%
    01:00 +19°C° 0 mm 2 mps 755 mmHg 87%
    02:00 +19°C° 0 mm 2 mps 755 mmHg 90%
    03:00 +19°C° 0.1 mm 2 mps 755 mmHg 90%
    04:00 +20°C° 0.1 mm 2 mps 754 mmHg 90%
    05:00 +20°C° 0.1 mm 2 mps 754 mmHg 90%
    06:00 +20°C° 0.5 mm 2 mps 754 mmHg 90%
    07:00 +21°C° 0.5 mm 2 mps 754 mmHg 90%
    08:00 +21°C° 0.5 mm 2 mps 754 mmHg 91%
    09:00 +24°C° 0.2 mm 3 mps 754 mmHg 87%
    10:00 +25°C° 0.2 mm 3 mps 754 mmHg 83%
    11:00 +26°C° 0.2 mm 3 mps 754 mmHg 78%
    12:00 +28°C° 0 mm 4 mps 753 mmHg 68%
    13:00 +30°C° 0 mm 4 mps 752 mmHg 58%
    14:00 +34°C° 0 mm 5 mps 751 mmHg 48%
    15:00 +33°C° 0 mm 4 mps 751 mmHg 51%
    16:00 +31°C° 0 mm 3 mps 751 mmHg 54%
    17:00 +30°C° 0 mm 2 mps 751 mmHg 56%
    18:00 +29°C° 0 mm 2 mps 751 mmHg 58%
    19:00 +28°C° 0 mm 3 mps 752 mmHg 60%
    20:00 +27°C° 0 mm 3 mps 752 mmHg 61%
    21:00 +27°C° 0.1 mm 3 mps 752 mmHg 64%
    22:00 +26°C° 0.1 mm 3 mps 752 mmHg 66%
    23:00 +26°C° 0.1 mm 3 mps 752 mmHg 69%

    Day after tomorrow, 25 August, Friday

    Time Temperature Precipitation Wind Pressure Humidity
    00:00 +26°C° 0.1 mm 3 mps 752 mmHg 69%
    01:00 +26°C° 0.1 mm 3 mps 752 mmHg 69%
    02:00 +26°C° 0.1 mm 4 mps 751 mmHg 70%
    03:00 +26°C° 0.1 mm 4 mps 751 mmHg 72%
    04:00 +25°C° 0.1 mm 4 mps 751 mmHg 74%
    05:00 +25°C° 0.1 mm 4 mps 751 mmHg 76%
    06:00 +25°C° 0.8 mm 4 mps 751 mmHg 77%
    07:00 +25°C° 0.8 mm 4 mps 752 mmHg 77%
    08:00 +25°C° 0.8 mm 4 mps 752 mmHg 77%
    09:00 +27°C° 0.2 mm 5 mps 752 mmHg 68%
    10:00 +29°C° 0.2 mm 6 mps 753 mmHg 60%
    11:00 +32°C° 0.2 mm 7 mps 753 mmHg 51%
    12:00 +33°C° 0 mm 6 mps 752 mmHg 49%
    13:00 +34°C° 0 mm 5 mps 752 mmHg 46%
    14:00 +35°C° 0 mm 5 mps 751 mmHg 44%
    15:00 +33°C° 0.3 mm 4 mps 751 mmHg 52%
    16:00 +30°C° 0.3 mm 2 mps 752 mmHg 60%
    17:00 +28°C° 0.3 mm 1 mps 752 mmHg 68%
    18:00 +27°C° 2.4 mm 3 mps 753 mmHg 74%
    19:00 +25°C° 2.4 mm 4 mps 753 mmHg 80%
    20:00 +23°C° 2.4 mm 5 mps 754 mmHg 86%
    21:00 +22°C° 2.2 mm 5 mps 755 mmHg 87%
    22:00 +21°C° 2.2 mm 6 mps 756 mmHg 88%
    23:00 +20°C° 2.2 mm 6 mps 757 mmHg 89%

    26 August, Saturday

    Time Temperature Precipitation Wind Pressure Humidity
    00:00 +20°C° 0.3 mm 6 mps 758 mmHg 89%
    01:00 +19°C° 0.3 mm 6 mps 758 mmHg 89%
    02:00 +17°C° 0.3 mm 5 mps 758 mmHg 88%
    03:00 +17°C° 0 mm 5 mps 758 mmHg 88%
    04:00 +16°C° 0 mm 5 mps 759 mmHg 88%
    05:00 +16°C° 0 mm 5 mps 759 mmHg 88%
    06:00 +15°C° 0 mm 5 mps 760 mmHg 87%
    07:00 +15°C° 0 mm 5 mps 760 mmHg 87%
    08:00 +15°C° 0 mm 5 mps 761 mmHg 86%
    09:00 +16°C° 0 mm 5 mps 761 mmHg 81%
    10:00 +17°C° 0 mm 5 mps 762 mmHg 76%
    11:00 +19°C° 0 mm 4 mps 762 mmHg 71%
    12:00 +19°C° 0 mm 4 mps 762 mmHg 68%
    13:00 +20°C° 0 mm 4 mps 761 mmHg 65%
    14:00 +21°C° 0 mm 4 mps 761 mmHg 62%
    15:00 +20°C° 0 mm 4 mps 761 mmHg 65%
    16:00 +20°C° 0 mm 4 mps 761 mmHg 69%
    17:00 +19°C° 0 mm 3 mps 760 mmHg 72%
    18:00 +18°C° 0 mm 3 mps 761 mmHg 77%
    19:00 +17°C° 0 mm 3 mps 761 mmHg 82%
    20:00 +14°C° 0 mm 3 mps 762 mmHg 88%
    21:00 +14°C° 0 mm 3 mps 762 mmHg 89%
    22:00 +14°C° 0 mm 3 mps 762 mmHg 90%
    23:00 +13°C° 0 mm 4 mps 762 mmHg 91%

    27 August, Sunday

    Time Temperature Precipitation Wind Pressure Humidity
    00:00 +13°C° 0 mm 4 mps 762 mmHg 91%
    01:00 +13°C° 0 mm 4 mps 762 mmHg 91%
    02:00 +12°C° 0 mm 4 mps 761 mmHg 91%
    03:00 +12°C° 0 mm 4 mps 761 mmHg 90%
    04:00 +12°C° 0 mm 4 mps 761 mmHg 89%
    05:00 +13°C° 0 mm 4 mps 761 mmHg 88%
    06:00 +13°C° 0 mm 4 mps 761 mmHg 87%
    07:00 +13°C° 0 mm 4 mps 761 mmHg 86%
    08:00 +13°C° 0 mm 4 mps 761 mmHg 86%
    09:00 +14°C° 0 mm 4 mps 761 mmHg 83%
    10:00 +17°C° 0 mm 3 mps 761 mmHg 81%
    11:00 +18°C° 0 mm 3 mps 761 mmHg 79%
    12:00 +19°C° 0 mm 3 mps 760 mmHg 78%
    13:00 +20°C° 0 mm 3 mps 759 mmHg 76%
    14:00 +21°C° 0 mm 3 mps 758 mmHg 75%
    15:00 +21°C° 0 mm 3 mps 758 mmHg 78%
    16:00 +21°C° 0 mm 2 mps 758 mmHg 81%
    17:00 +20°C° 0 mm 2 mps 758 mmHg 84%
    18:00 +20°C° 0 mm 2 mps 758 mmHg 87%
    19:00 +19°C° 0 mm 2 mps 758 mmHg 89%
    20:00 +19°C° 0 mm 3 mps 758 mmHg 92%
    21:00 +18°C° 0 mm 3 mps 758 mmHg 93%
    22:00 +18°C° 0 mm 3 mps 758 mmHg 94%
    23:00 +17°C° 0 mm 3 mps 758 mmHg 95%

    28 August, Monday

    Time Temperature Precipitation Wind Pressure Humidity
    00:00 +17°C° 0 mm 3 mps 758 mmHg 96%
    01:00 +17°C° 0 mm 2 mps 758 mmHg 97%
    02:00 +17°C° 0 mm 2 mps 757 mmHg 98%
    03:00 +17°C° 0 mm 2 mps 757 mmHg 98%
    04:00 +17°C° 0 mm 2 mps 757 mmHg 98%
    05:00 +17°C° 0 mm 2 mps 757 mmHg 98%
    06:00 +17°C° 0 mm 2 mps 757 mmHg 96%
    07:00 +18°C° 0 mm 3 mps 757 mmHg 95%
    08:00 +19°C° 0 mm 3 mps 758 mmHg 93%
    09:00 +20°C° 0 mm 3 mps 758 mmHg 89%
    10:00 +21°C° 0 mm 3 mps 757 mmHg 85%
    11:00 +24°C° 0 mm 3 mps 757 mmHg 80%
    12:00 +24°C° 0 mm 2 mps 757 mmHg 79%
    13:00 +24°C° 0 mm 2 mps 756 mmHg 77%
    14:00 +25°C° 0 mm 2 mps 756 mmHg 75%
    15:00 +24°C° 0 mm 2 mps 756 mmHg 79%
    16:00 +24°C° 0 mm 2 mps 756 mmHg 82%
    17:00 +22°C° 0 mm 3 mps 755 mmHg 85%
    18:00 +23°C° 0.3 mm 2 mps 756 mmHg 88%
    19:00 +21°C° 0.3 mm 2 mps 756 mmHg 91%
    20:00 +20°C° 0.3 mm 2 mps 757 mmHg 95%
    21:00 +20°C° 0.6 mm 2 mps 757 mmHg 95%
    22:00 +20°C° 0.6 mm 2 mps 757 mmHg 95%
    23:00 +20°C° 0.6 mm 3 mps 757 mmHg 95%
    Show more